CO-58
1 28895U 05043F 09302.68397804 .00000058 00000-0 21627-4 0 4296
2 28895 098.0390 189.3888 0016958 288.2346 071.7024 14.59808008213358
FALCON
1 30776U 07006E 09301.52606936 .00000810 00000-0 61509-4 0 07011
2 30776 035.4341 010.3659 0002151 349.4098 010.6573 15.03347380145179
MAST
1 31126U 07012K 09302.54719563 -.00000001 00000-0 10378-4 0 7181
2 31126 097.9727 351.0820 0093998 222.3412 137.0506 14.53525534134556
CAPE1
1 31130U 07012P 09301.68475686 .00000007 00000-0 12545-4 0 7290
2 31130 097.9741 348.1513 0101768 231.6114 127.5891 14.52097964134067
COMPASS
1 32787U 08021E 09301.21083674 .00000522 00000-0 72970-4 0 05053
2 32787 097.9274 003.8051 0015128 323.6532 036.3646 14.81680089081142
AAUSAT2
1 32788U 08021F 09301.70775043 .00000210 00000-0 33319-4 0 04996
2 32788 097.9291 004.3814 0014668 323.8046 036.2170 14.81806598081220
DO-64
1 32789U 08021G 09301.72900771 .00000413 00000-0 58947-4 0 05177
2 32789 097.9327 004.6530 0015100 321.0501 038.9617 14.81831026081226
CO-66
1 32791U 08021J 09302.75530484 .00000488 00000-0 69006-4 0 4948
2 32791 097.9295 005.3652 0015557 316.6459 043.3524 14.81499947 81335
RS-30
1 32953U 08025A 09302.60732950 .00000010 00000-0 00000 0 0 4404
2 32953 082.5039 173.0457 0018087 246.4027 113.5157 12.43003250 65090
TACSAT-3
1 35001U 09028A 09301.94262443 .00004149 00000-0 10848-3 0 01416
2 35001 040.4547 160.4990 0022564 073.6527 286.6760 15.39430178024960
PHARMSAT
1 35002U 09028B 09302.77045651 .00003889 00000-0 99425-4 0 1261
2 35002 040.4679 154.6024 0025643 084.9575 275.4165 15.40169408 25096
HAWKSAT1
1 35003U 09028C 09302.70584545 .00007153 00000-0 17233-3 0 1337
2 35003 040.4601 153.9756 0025274 088.7292 271.6361 15.41116316 25103
CP6
1 35004U 09028D 09301.01761656 .00009239 00000-0 22009-3 0 01289
2 35004 040.4592 164.0654 0025269 073.8562 286.5030 15.41216964024839
AEROCUB3
1 35005U 09028E 09301.94524888 .00008367 00000-0 20152-3 0 01318
2 35005 040.4745 158.9660 0024501 080.0053 280.3498 15.40996674024979
DRAGNSAT
1 35690U 09038B 09302.52466149 .00047279 00000-0 19486-3 0 883
2 35690 051.6418 331.1149 0006132 057.9384 302.2219 15.85404673 14412
POLLUX
1 35693U 09038E 09302.56192016 .00042693 00000-0 18445-3 0 912
2 35693 051.6411 331.3748 0005113 023.9182 336.1939 15.84474357 14388
CASTOR
1 35694U 09038F 09301.92262822 .00021513 00000-0 10521-3 0 00864
2 35694 051.6431 335.3803 0004745 021.4335 338.6862 15.82239583014278
METEOR-M
1 35865U 09049A 09301.82245358 .00000176 00000-0 10000-3 0 404
2 35865 098.7936 351.8743 0001958 334.6312 025.4730 14.21827271 5840
STERKH-2
1 35866U 09049B 09301.80888730 .00000178 00000-0 10000-3 0 424
2 35866 098.7947 351.8992 0002698 326.0971 034.0033 14.22298067 5845
FREGAT-I
1 35867U 09049C 09302.58823812 .00002267 00000-0 10000-3 0 523
2 35867 097.3674 351.8742 0011213 135.7595 224.4467 15.22744716 6374
